• In Romania
  • List of Countries
  • For 7 days
  • Water Temperature
  • Satellite Maps
  • Weather Map
  • Weather Widgets
  • user-avatar
    Login

    Hourly Weather Lumivaara

    Today, 19 August, Sunday

    Time Temperature Precipitation Wind Pressure Humidity
    00:00 +19°C° 0.1 mm 5 mps 757 mmHg 85%
    01:00 +19°C° 0.1 mm 5 mps 757 mmHg 87%
    02:00 +19°C° 0 mm 5 mps 756 mmHg 88%
    03:00 +17°C° 0.2 mm 5 mps 756 mmHg 88%
    04:00 +17°C° 0.2 mm 5 mps 756 mmHg 89%
    05:00 +16°C° 0.2 mm 5 mps 756 mmHg 89%
    06:00 +17°C° 0 mm 6 mps 755 mmHg 84%
    07:00 +19°C° 0 mm 6 mps 755 mmHg 78%
    08:00 +19°C° 0 mm 6 mps 755 mmHg 73%
    09:00 +19°C° 1.2 mm 6 mps 755 mmHg 80%
    10:00 +17°C° 1.2 mm 6 mps 755 mmHg 86%
    11:00 +16°C° 1.2 mm 6 mps 754 mmHg 93%
    12:00 +17°C° 1.5 mm 6 mps 754 mmHg 92%
    13:00 +17°C° 1.5 mm 6 mps 754 mmHg 91%
    14:00 +19°C° 0 mm 6 mps 754 mmHg 89%
    15:00 +20°C° 0.4 mm 6 mps 754 mmHg 86%
    16:00 +20°C° 0.4 mm 6 mps 753 mmHg 83%
    17:00 +20°C° 0.4 mm 5 mps 753 mmHg 80%
    18:00 +19°C° 0.2 mm 5 mps 753 mmHg 82%
    19:00 +17°C° 0.2 mm 5 mps 753 mmHg 84%
    20:00 +17°C° 0.2 mm 4 mps 753 mmHg 86%
    21:00 +17°C° 0 mm 4 mps 754 mmHg 85%
    22:00 +15°C° 0 mm 4 mps 754 mmHg 84%
    23:00 +14°C° 0 mm 4 mps 754 mmHg 83%

    Tomorrow, 20 August, Monday

    Time Temperature Precipitation Wind Pressure Humidity
    00:00 +14°C° 0 mm 4 mps 754 mmHg 81%
    01:00 +13°C° 0 mm 4 mps 755 mmHg 80%
    02:00 +12°C° 0 mm 3 mps 755 mmHg 79%
    03:00 +12°C° 0 mm 3 mps 755 mmHg 80%
    04:00 +12°C° 0 mm 3 mps 755 mmHg 80%
    05:00 +11°C° 0 mm 3 mps 755 mmHg 80%
    06:00 +14°C° 0 mm 2 mps 756 mmHg 74%
    07:00 +15°C° 0 mm 2 mps 756 mmHg 69%
    08:00 +16°C° 0 mm 2 mps 756 mmHg 63%
    09:00 +18°C° 0 mm 2 mps 755 mmHg 56%
    10:00 +19°C° 0 mm 2 mps 755 mmHg 48%
    11:00 +21°C° 0 mm 2 mps 755 mmHg 41%
    12:00 +21°C° 0 mm 2 mps 754 mmHg 40%
    13:00 +23°C° 0 mm 2 mps 754 mmHg 39%
    14:00 +23°C° 0 mm 2 mps 754 mmHg 38%
    15:00 +21°C° 0 mm 2 mps 753 mmHg 42%
    16:00 +21°C° 0 mm 3 mps 753 mmHg 47%
    17:00 +20°C° 0 mm 3 mps 752 mmHg 51%
    18:00 +18°C° 0.1 mm 3 mps 752 mmHg 60%
    19:00 +17°C° 0.1 mm 2 mps 751 mmHg 69%
    20:00 +16°C° 0.1 mm 2 mps 751 mmHg 78%
    21:00 +14°C° 0.3 mm 3 mps 750 mmHg 80%
    22:00 +14°C° 0.3 mm 3 mps 749 mmHg 81%
    23:00 +14°C° 0.3 mm 4 mps 749 mmHg 83%

    Day after tomorrow, 21 August, Tuesday

    Time Temperature Precipitation Wind Pressure Humidity
    00:00 +14°C° 1 mm 4 mps 748 mmHg 84%
    01:00 +13°C° 1 mm 4 mps 747 mmHg 85%
    02:00 +13°C° 1 mm 4 mps 747 mmHg 87%
    03:00 +12°C° 0.4 mm 4 mps 747 mmHg 87%
    04:00 +12°C° 0.4 mm 5 mps 746 mmHg 87%
    05:00 +12°C° 0.4 mm 5 mps 746 mmHg 88%
    06:00 +12°C° 0.2 mm 5 mps 747 mmHg 85%
    07:00 +13°C° 0.2 mm 4 mps 747 mmHg 83%
    08:00 +13°C° 0.2 mm 4 mps 748 mmHg 80%
    09:00 +14°C° 0.1 mm 5 mps 748 mmHg 70%
    10:00 +16°C° 0.1 mm 6 mps 748 mmHg 60%
    11:00 +17°C° 0.1 mm 7 mps 749 mmHg 51%
    12:00 +17°C° 0.1 mm 7 mps 749 mmHg 53%
    13:00 +17°C° 0.1 mm 7 mps 749 mmHg 56%
    14:00 +17°C° 0.1 mm 7 mps 750 mmHg 58%
    15:00 +17°C° 0.1 mm 7 mps 750 mmHg 55%
    16:00 +17°C° 0.1 mm 7 mps 750 mmHg 52%
    17:00 +17°C° 0.1 mm 7 mps 751 mmHg 48%
    18:00 +16°C° 0.1 mm 7 mps 751 mmHg 51%
    19:00 +14°C° 0.1 mm 7 mps 752 mmHg 53%
    20:00 +12°C° 0.1 mm 7 mps 753 mmHg 55%
    21:00 +12°C° 0 mm 7 mps 753 mmHg 57%
    22:00 +11°C° 0 mm 7 mps 754 mmHg 58%
    23:00 +10°C° 0 mm 7 mps 754 mmHg 60%

    22 August, Wednesday

    Time Temperature Precipitation Wind Pressure Humidity
    00:00 +10°C° 0 mm 7 mps 754 mmHg 59%
    01:00 +10°C° 0 mm 7 mps 755 mmHg 59%
    02:00 +10°C° 0 mm 7 mps 755 mmHg 58%
    03:00 +10°C° 0 mm 7 mps 756 mmHg 59%
    04:00 +10°C° 0 mm 7 mps 756 mmHg 60%
    05:00 +10°C° 0 mm 7 mps 757 mmHg 61%
    06:00 +10°C° 0 mm 7 mps 757 mmHg 57%
    07:00 +11°C° 0 mm 8 mps 758 mmHg 53%
    08:00 +12°C° 0 mm 8 mps 758 mmHg 49%
    09:00 +14°C° 0 mm 7 mps 758 mmHg 46%
    10:00 +15°C° 0 mm 7 mps 759 mmHg 42%
    11:00 +16°C° 0 mm 6 mps 759 mmHg 38%
    12:00 +17°C° 0 mm 6 mps 759 mmHg 37%
    13:00 +17°C° 0 mm 6 mps 759 mmHg 36%
    14:00 +19°C° 0 mm 6 mps 759 mmHg 35%
    15:00 +19°C° 0 mm 5 mps 759 mmHg 36%
    16:00 +19°C° 0 mm 5 mps 759 mmHg 38%
    17:00 +19°C° 0 mm 5 mps 759 mmHg 39%
    18:00 +16°C° 0 mm 5 mps 759 mmHg 45%
    19:00 +15°C° 0 mm 4 mps 759 mmHg 52%
    20:00 +13°C° 0 mm 4 mps 759 mmHg 59%
    21:00 +14°C° 0 mm 4 mps 759 mmHg 61%
    22:00 +14°C° 0 mm 5 mps 759 mmHg 64%
    23:00 +14°C° 0 mm 5 mps 759 mmHg 66%

    23 August, Thursday

    Time Temperature Precipitation Wind Pressure Humidity
    00:00 +14°C° 0.2 mm 6 mps 758 mmHg 73%
    01:00 +14°C° 0.2 mm 6 mps 758 mmHg 80%
    02:00 +14°C° 0.2 mm 7 mps 757 mmHg 87%
    03:00 +15°C° 0.5 mm 7 mps 757 mmHg 87%
    04:00 +15°C° 0.5 mm 8 mps 756 mmHg 88%
    05:00 +15°C° 0.5 mm 9 mps 756 mmHg 89%
    06:00 +15°C° 0.3 mm 8 mps 756 mmHg 88%
    07:00 +16°C° 0.3 mm 8 mps 756 mmHg 86%
    08:00 +16°C° 0.3 mm 8 mps 755 mmHg 85%
    09:00 +16°C° 0.3 mm 8 mps 755 mmHg 86%
    10:00 +16°C° 0.3 mm 8 mps 756 mmHg 87%
    11:00 +17°C° 0.3 mm 7 mps 756 mmHg 88%
    12:00 +17°C° 0.3 mm 7 mps 756 mmHg 87%
    13:00 +17°C° 0.3 mm 7 mps 756 mmHg 86%
    14:00 +18°C° 0.3 mm 7 mps 756 mmHg 84%
    15:00 +19°C° 0.2 mm 6 mps 756 mmHg 83%
    16:00 +19°C° 0.2 mm 6 mps 756 mmHg 81%
    17:00 +20°C° 0.2 mm 6 mps 756 mmHg 80%
    18:00 +19°C° 0.1 mm 6 mps 756 mmHg 81%
    19:00 +19°C° 0.1 mm 5 mps 756 mmHg 83%
    20:00 +17°C° 0.1 mm 5 mps 756 mmHg 84%
    21:00 +17°C° 0.1 mm 5 mps 756 mmHg 84%
    22:00 +17°C° 0.1 mm 5 mps 757 mmHg 83%
    23:00 +17°C° 0.1 mm 5 mps 757 mmHg 83%

    24 August, Friday

    Time Temperature Precipitation Wind Pressure Humidity
    00:00 +17°C° 0 mm 5 mps 757 mmHg 84%
    01:00 +16°C° 0 mm 5 mps 757 mmHg 86%
    02:00 +16°C° 0 mm 5 mps 757 mmHg 88%
    03:00 +17°C° 0 mm 4 mps 757 mmHg 89%
    04:00 +17°C° 0 mm 4 mps 757 mmHg 90%
    05:00 +17°C° 0 mm 4 mps 757 mmHg 91%
    06:00 +18°C° 0 mm 4 mps 757 mmHg 87%
    07:00 +19°C° 0 mm 5 mps 757 mmHg 82%
    08:00 +20°C° 0 mm 5 mps 757 mmHg 78%
    09:00 +21°C° 0 mm 5 mps 757 mmHg 72%
    10:00 +22°C° 0 mm 5 mps 757 mmHg 65%
    11:00 +24°C° 0 mm 6 mps 757 mmHg 59%
    12:00 +25°C° 0 mm 5 mps 757 mmHg 57%
    13:00 +26°C° 0 mm 5 mps 757 mmHg 55%
    14:00 +26°C° 0 mm 5 mps 757 mmHg 53%
    15:00 +26°C° 0 mm 5 mps 757 mmHg 54%
    16:00 +25°C° 0 mm 5 mps 757 mmHg 55%
    17:00 +25°C° 0 mm 5 mps 757 mmHg 56%
    18:00 +23°C° 0 mm 5 mps 757 mmHg 62%
    19:00 +21°C° 0 mm 4 mps 757 mmHg 68%
    20:00 +20°C° 0 mm 4 mps 757 mmHg 74%
    21:00 +19°C° 0 mm 4 mps 757 mmHg 75%
    22:00 +19°C° 0 mm 4 mps 757 mmHg 77%
    23:00 +18°C° 0 mm 4 mps 757 mmHg 79%
    Show more